Weather History for Wright-Patt AFB, OH

Change the Weather History Date:

Friday, July 26, 2013

  Actual Average Record
Temperature  
Mean Temperature 68 °F -  
Max Temperature 80 °F 82 °F 95 °F (2005)
Min Temperature 57 °F 61 °F 53 °F (1998)
Cooling Degree Days 3    
Growing Degree Days 18 (Base 50)    
Moisture  
Dew Point 57 °F    
Average Humidity 69    
Maximum Humidity 94    
Minimum Humidity 44    
Precipitation  
Precipitation 0.00 in - - ()
Sea Level Pressure  
Sea Level Pressure 30.06 in    
Wind  
Wind Speed 3 mph (SE)    
Max Wind Speed 13 mph    
Max Gust Speed -    
Visibility 10 miles    
Events Rain    
Averages and records for this station are not official NWS values.
T = Trace of Precipitation, MM = Missing Value Source: NWS Daily Summary

Daily Weather History Graph

Daily Weather History Graph

Search for Another Location

Airport:

Trip Planner

Search our weather history database for the weather conditions in past years. The results will help you decide how hot, cold, wet, or windy it might be!

Date:

Astronomy

Jul. 26, 2013 Rise Set
Actual Time 6:29 AM EDT 8:55 PM EDT
Civil Twilight 5:59 AM EDT 9:25 PM EDT
Nautical Twilight 5:20 AM EDT 10:03 PM EDT
Astronomical Twilight 4:38 AM EDT 10:45 PM EDT
Moon 11:09 PM EDT (7/26) 11:04 AM EDT (7/26)
Length of Visible Light 15h 26m
Length of Day
14h 25m
Waning Gibbous, 80% of the Moon is Illuminated
Jul 26
Waning Gibbous
Jul 29
Last Quarter
Aug 6
New
Aug 14
First Quarter
Aug 20
Full

Hourly Weather History & Observations

Time (EDT) Temp. Dew Point Humidity Pressure Visibility Wind Dir Wind Speed Gust Speed Precip Events Conditions
12:58 AM 61.2 °F 57.6 °F 88% 30.11 in 10.0 mi NW 1.2 mph - N/A   Partly Cloudy
1:48 AM 60.8 °F 57.2 °F 88% 30.11 in 9.0 mi Calm Calm - N/A   Clear
1:58 AM 60.4 °F 58.3 °F 93% 30.11 in 10.0 mi Calm Calm - N/A   Clear
2:58 AM 61.7 °F 57.6 °F 86% 30.10 in 10.0 mi NE 2.3 mph - N/A   Clear
3:58 AM 58.3 °F 56.1 °F 93% 30.08 in 10.0 mi NNE 2.3 mph - N/A   Clear
4:58 AM 57.7 °F 54.9 °F 90% 30.09 in 10.0 mi NNW 3.5 mph - N/A   Clear
5:58 AM 57.2 °F 55.6 °F 94% 30.09 in 10.0 mi NNE 1.2 mph - N/A   Partly Cloudy
6:58 AM 57.0 °F 54.3 °F 91% 30.09 in 10.0 mi NE 2.3 mph - N/A   Partly Cloudy
7:58 AM 60.4 °F 56.1 °F 86% 30.09 in 10.0 mi NE 1.2 mph - N/A   Scattered Clouds
8:58 AM 65.3 °F 56.7 °F 74% 30.10 in 10.0 mi ESE 3.5 mph - N/A   Scattered Clouds
9:58 AM 70.0 °F 57.7 °F 65% 30.10 in 10.0 mi Calm Calm - N/A   Scattered Clouds
9:59 AM 69.8 °F 57.2 °F 64% 30.10 in 10.0 mi Variable 1.2 mph - N/A Rain Light Rain
10:58 AM 73.8 °F 54.9 °F 52% 30.10 in 10.0 mi Variable 4.6 mph - N/A   Mostly Cloudy
11:58 AM 74.5 °F 55.4 °F 51% 30.09 in 10.0 mi NNE 3.5 mph - N/A   Mostly Cloudy
12:58 PM 77.5 °F 56.1 °F 47% 30.08 in 10.0 mi ESE 8.1 mph - N/A   Mostly Cloudy
1:58 PM 77.4 °F 54.3 °F 45% 30.06 in 10.0 mi South 8.1 mph - N/A   Mostly Cloudy
2:58 PM 79.3 °F 56.3 °F 45% 30.05 in 10.0 mi Variable 2.3 mph - N/A   Scattered Clouds
3:58 PM 79.7 °F 56.3 °F 44% 30.03 in 10.0 mi South 8.1 mph - N/A   Mostly Cloudy
4:58 PM 79.7 °F 57.7 °F 47% 30.02 in 10.0 mi South 10.4 mph - N/A   Mostly Cloudy
5:58 PM 78.4 °F 57.7 °F 49% 30.01 in 10.0 mi SE 4.6 mph - N/A   Mostly Cloudy
6:58 PM 77.4 °F 59.5 °F 54% 30.00 in 10.0 mi SSE 12.7 mph - N/A   Mostly Cloudy
7:58 PM 76.1 °F 60.3 °F 58% 29.99 in 10.0 mi South 6.9 mph - N/A   Mostly Cloudy
8:58 PM 73.8 °F 60.3 °F 63% 30.00 in 10.0 mi SW 4.6 mph - N/A   Overcast
9:58 PM 70.5 °F 60.1 °F 69% 29.99 in 10.0 mi SW 4.6 mph - N/A   Mostly Cloudy
10:58 PM 68.4 °F 59.9 °F 74% 30.00 in 10.0 mi SSW 5.8 mph - N/A   Mostly Cloudy
11:58 PM 66.7 °F 60.3 °F 80% 29.98 in 10.0 mi South 5.8 mph - N/A   Mostly Cloudy